DateTimeUTC,F1_A11,F1_S11,BsB_S11,BsG_S11,BsR_S11,BbsB_S11,BbsG_S11,BbsR_S11,BaB_A11,BaG_A11,BaR_A11,Tu_S11,T_S11,Uu_S11,U_S11,P_S11,T1_A11
2021-08-25T16:00:00Z,00000200,20000000,,,,,,,0000.27,-000.03,0000.04,19.8,26.3,08.0,05.4,0675.4,31.1
2021-08-25T16:01:00Z,00000200,20000000,,,,,,,0000.14,0000.07,0000.20,19.8,26.4,08.1,05.4,0675.4,31.1
2021-08-25T16:02:00Z,00000200,20000000,,,,,,,-000.25,0000.08,-000.27,19.8,26.4,08.1,05.4,0675.4,31.1
2021-08-25T16:03:00Z,00000200,60000000,,,,,,,0001.02,0000.70,0000.68,19.8,26.4,08.1,05.4,0675.4,31.1
2021-08-25T16:04:00Z,00000200,40000000,0006.23,0004.71,0002.76,0001.22,0000.78,0000.49,0000.95,0000.69,0000.66,19.9,26.2,08.2,05.6,0676.4,31.1
2021-08-25T16:05:00Z,00000200,00000000,0006.05,0004.44,0003.17,0000.82,0000.51,0000.47,0001.26,0001.20,0000.92,20.0,26.2,08.1,05.5,0676.5,31.1
2021-08-25T16:06:00Z,00000200,00000000,0005.76,0004.77,0003.14,0000.34,0000.84,0000.45,0001.26,0001.18,0001.02,20.0,26.2,08.1,05.6,0676.4,31.1
2021-08-25T16:07:00Z,00000200,00000000,0006.41,0004.62,0003.19,0001.44,0000.31,0000.57,0000.70,0000.83,0000.95,20.0,26.2,08.2,05.6,0676.4,31.1
2021-08-25T16:08:00Z,00000200,00000000,0005.84,0004.45,0003.18,0000.80,0000.45,0000.68,0001.00,0000.88,0000.45,20.0,26.2,08.0,05.5,0676.4,31.1
2021-08-25T16:09:00Z,00000200,00000000,0007.21,0004.64,0002.89,0001.41,0000.85,0000.25,0000.95,0001.09,0000.86,20.1,26.2,07.8,05.4,0676.4,31.1
2021-08-25T16:10:00Z,00000200,00000000,0006.04,0004.25,0003.36,0001.39,0000.44,0000.49,0000.69,0000.43,0000.43,20.1,26.2,07.9,05.5,0676.4,31.1
2021-08-25T16:11:00Z,00000200,00000000,0006.35,0004.20,0003.21,0000.59,0000.71,0000.30,0000.91,0000.71,0000.58,20.1,26.2,07.5,05.2,0676.4,31.1
2021-08-25T16:12:00Z,00000200,00000000,0005.32,0004.51,0003.18,0000.78,0000.85,0000.76,0001.28,0001.21,0001.00,20.1,26.2,07.4,05.1,0676.5,31.1
2021-08-25T16:13:00Z,00000200,00000000,0006.10,0004.68,0003.19,-000.05,0000.79,0000.25,0001.24,0001.51,0001.04,20.1,26.2,07.5,05.2,0676.5,31.1
2021-08-25T16:14:00Z,00000200,00000000,0005.84,0004.71,0003.09,0000.80,0000.46,0000.26,0001.07,0000.90,0001.00,20.1,26.2,07.7,05.3,0676.5,31.1
2021-08-25T16:15:00Z,00000200,00000000,0005.84,0004.57,0003.24,0000.86,0000.29,0000.09,0001.27,0001.30,0000.99,20.1,26.2,07.6,05.2,0676.5,31.1
2021-08-25T16:16:00Z,00000200,00000000,0005.93,0004.31,0002.53,0001.32,0000.67,0000.02,0001.18,0000.87,0000.67,20.1,26.3,07.8,05.3,0676.5,31.1
2021-08-25T16:17:00Z,00000200,00000000,0006.03,0004.03,0003.07,0001.14,0000.68,0000.44,0001.24,0001.09,0000.89,20.1,26.3,07.7,05.3,0676.5,31.1
2021-08-25T16:18:00Z,00000200,00000000,0006.12,0004.29,0003.15,0000.67,0000.44,0000.52,0001.17,0000.76,0000.62,20.1,26.3,07.8,05.4,0676.4,31.1
2021-08-25T16:19:00Z,00000200,00000000,0005.50,0004.39,0002.79,0001.03,0000.64,0000.13,0000.82,0001.26,0001.08,20.1,26.3,07.7,05.3,0676.4,31.1
2021-08-25T16:20:00Z,00000200,00000000,0006.16,0004.05,0003.03,0000.55,0000.70,0000.39,0001.71,0001.28,0001.37,20.1,26.3,07.8,05.4,0676.4,31.1
2021-08-25T16:21:00Z,00000200,00000000,0005.67,0004.22,0002.95,0000.80,0000.61,0000.31,0001.40,0001.36,0000.88,20.1,26.2,08.1,05.6,0676.4,31.1
2021-08-25T16:22:00Z,00000200,00000000,0005.73,0004.19,0003.03,0001.07,0000.62,0000.54,0000.61,0000.83,0000.59,20.1,26.3,08.1,05.6,0676.4,31.1
2021-08-25T16:23:00Z,00000200,00000000,0005.67,0004.01,0003.06,0000.72,0000.47,0000.21,0001.86,0001.58,0001.43,20.1,26.2,08.1,05.6,0676.4,31.1
2021-08-25T16:24:00Z,00000200,00000000,0005.99,0004.35,0003.27,0000.58,0000.16,0000.82,0000.77,0000.76,0000.63,20.1,26.2,08.1,05.6,0676.4,31.1
2021-08-25T16:25:00Z,00000200,00000000,0006.49,0004.46,0002.97,0000.44,0000.50,0000.51,0000.58,0000.98,0000.60,20.1,26.3,08.1,05.5,0676.3,31.1
2021-08-25T16:26:00Z,00000200,00000000,0005.50,0004.33,0003.10,0001.52,0000.30,0000.64,0001.10,0000.74,0000.60,20.1,26.3,08.0,05.5,0676.3,31.1
2021-08-25T16:27:00Z,00000200,00000000,0006.41,0004.12,0003.11,0000.88,0000.43,0000.74,0000.50,0000.29,0000.50,20.1,26.3,07.7,05.3,0676.3,31.1
2021-08-25T16:28:00Z,00000200,00000000,0005.61,0004.63,0003.57,0000.49,0000.53,0000.57,0001.24,0001.10,0000.98,20.1,26.3,07.6,05.2,0676.3,31.2
2021-08-25T16:29:00Z,00000200,00000000,0005.70,0004.45,0003.16,0000.83,0000.32,0000.29,0000.75,0001.02,0000.48,20.1,26.3,07.7,05.3,0676.3,31.1
2021-08-25T16:30:00Z,00000200,00000000,0006.04,0004.17,0003.00,0000.24,0000.80,0000.18,0000.88,0000.55,0000.63,20.1,26.3,07.6,05.3,0676.4,31.2
2021-08-25T16:31:00Z,00000200,00000000,0005.99,0004.47,0003.06,0000.32,0000.72,0000.36,0001.35,0001.11,0001.11,20.1,26.3,07.6,05.3,0676.4,31.2
2021-08-25T16:32:00Z,00000200,00000000,0006.51,0004.32,0002.59,0000.29,0000.62,0000.57,0001.47,0001.62,0000.83,20.1,26.3,07.6,05.2,0676.4,31.2
2021-08-25T16:33:00Z,00000200,00000000,0006.04,0004.27,0003.42,0001.13,0000.63,0000.61,0000.87,0000.52,0001.19,20.1,26.3,07.6,05.3,0676.4,31.2
2021-08-25T16:34:00Z,00000200,00000000,0005.69,0004.39,0003.11,0000.79,0000.42,0000.47,0000.91,0001.43,0000.41,20.2,26.3,07.7,05.3,0676.4,31.2
2021-08-25T16:35:00Z,00000200,00000000,0005.73,0004.32,0003.08,0000.87,0000.57,0000.30,0001.72,0001.11,0001.23,20.1,26.3,07.7,05.3,0676.4,31.1
2021-08-25T16:36:00Z,00000200,00000000,0005.88,0004.36,0002.95,0000.23,0000.73,0000.52,0000.86,0001.39,0001.05,20.2,26.3,07.8,05.4,0676.4,31.2
2021-08-25T16:37:00Z,00000200,00000000,0006.56,0004.21,0002.84,0000.95,0000.26,0000.26,0001.20,0000.93,0000.83,20.2,26.3,08.0,05.5,0676.4,31.2
2021-08-25T16:38:00Z,00000200,00000000,0006.19,0004.69,0003.03,0000.08,0000.74,0000.47,0001.03,0000.91,0000.95,20.2,26.3,07.9,05.5,0676.4,31.2
2021-08-25T16:39:00Z,00000200,00000000,0005.72,0004.26,0002.91,0001.22,0000.51,0000.78,0001.40,0001.08,0000.72,20.2,26.3,07.8,05.4,0676.4,31.1
2021-08-25T16:40:00Z,00000200,00000000,0005.25,0003.89,0002.74,0000.57,0000.35,0000.52,0000.86,0000.84,0000.86,20.2,26.3,08.0,05.5,0676.3,31.2
2021-08-25T16:41:00Z,00000200,00000000,0006.40,0004.27,0003.19,0000.20,0000.51,0000.38,0000.94,0001.07,0000.86,20.2,26.3,07.8,05.4,0676.3,31.1
2021-08-25T16:42:00Z,00000200,00000000,0006.36,0003.86,0003.06,0000.80,0000.44,0000.73,0001.00,0000.58,0000.71,20.2,26.3,07.9,05.4,0676.3,31.2
2021-08-25T16:43:00Z,00000200,00000000,0005.38,0004.19,0002.74,0000.82,0000.70,0000.29,0000.85,0000.79,0000.53,20.2,26.3,07.8,05.4,0676.3,31.1
2021-08-25T16:44:00Z,00000200,00000000,0005.84,0004.34,0003.04,0000.37,0000.65,0000.42,0001.56,0001.43,0001.22,20.2,26.3,07.7,05.3,0676.3,31.1
2021-08-25T16:45:00Z,00000200,00000000,0005.65,0004.33,0003.15,0000.61,0000.78,0000.49,0001.49,0001.46,0000.90,20.2,26.3,07.9,05.4,0676.4,31.2
2021-08-25T16:46:00Z,00000200,00000000,0006.02,0004.03,0003.30,0000.89,0000.32,0000.55,0000.64,0000.95,0000.91,20.2,26.3,08.0,05.5,0676.4,31.2
2021-08-25T16:47:00Z,00000200,00000000,0005.57,0004.11,0003.17,0000.90,0000.55,0000.45,0001.08,0000.68,0000.69,20.2,26.3,08.0,05.5,0676.3,31.2
2021-08-25T16:48:00Z,00000200,00000000,0005.76,0003.78,0002.88,0000.82,0000.71,0000.53,0000.84,0000.92,0000.65,20.2,26.3,07.8,05.4,0676.3,31.2
2021-08-25T16:49:00Z,00000200,00000000,0006.01,0003.96,0002.92,0001.18,0000.38,0000.40,0000.72,0001.05,0000.56,20.2,26.3,07.9,05.5,0676.4,31.2
2021-08-25T16:50:00Z,00000200,00000000,0005.44,0004.01,0002.67,0001.04,0000.85,0000.59,0001.71,0000.99,0001.29,20.2,26.3,08.1,05.6,0676.3,31.1
2021-08-25T16:51:00Z,00000200,00000000,0005.58,0003.87,0003.33,0000.96,0000.55,0000.43,0000.46,0000.29,0000.57,20.2,26.3,07.9,05.4,0676.3,31.2
2021-08-25T16:52:00Z,00000200,00000000,0005.59,0004.25,0002.94,0000.55,0000.46,0000.72,0000.85,0001.24,0000.66,20.2,26.3,07.7,05.3,0676.3,31.1
2021-08-25T16:53:00Z,00000200,00000000,0005.38,0004.42,0003.02,0001.07,0000.41,0000.39,0000.84,0000.92,0000.28,20.2,26.3,07.6,05.2,0676.3,31.1
2021-08-25T16:54:00Z,00000200,00000000,0005.33,0004.33,0002.56,0001.47,0000.51,0000.15,0001.25,0000.78,0001.19,20.2,26.3,07.6,05.2,0676.3,31.2
2021-08-25T16:55:00Z,00000200,00000000,0005.91,0003.82,0002.81,0000.92,0000.88,0000.21,0000.58,0000.64,0000.19,20.2,26.3,07.7,05.3,0676.3,31.1
2021-08-25T16:56:00Z,00000200,00000000,0005.91,0004.13,0002.81,0000.79,0000.35,0000.20,0001.05,0001.27,0000.96,20.2,26.4,07.5,05.2,0676.3,31.2
2021-08-25T16:57:00Z,00000200,40000000,,,,,,,0000.91,0000.66,0000.61,20.3,26.4,06.9,04.8,0676.4,31.2
2021-08-25T16:58:00Z,00000200,60000000,,,,,,,0000.25,-000.26,0000.10,20.0,26.4,07.8,05.3,0675.4,31.2
2021-08-25T16:59:00Z,00000200,20000000,,,,,,,-000.64,0000.20,-000.20,20.0,26.5,07.8,05.3,0675.3,31.2
